Activity Log for May, 07 2020

Back to Activity Log Search


Incident Time Nature Address
20F045684 00:01:24 53 ARMED ROB 22XX S HANNA ST
20F045685 00:03:00 46 DOMESTIC 70XX CHADWICK DR
20F045686 00:06:46 46 DOMESTIC 17XX REED RD
20F045688 00:09:31 15 ASSIST 9XX RIDGEWOOD DR
20F045687 00:10:31 34 TRAFF HAZARD AIRPORT EXPRESSWAY & FAIRFIELD AVE
20F045689 00:14:39 58 SHOOTING 27XX POINSETTE DR
20F045690 00:16:26 48,36 FAIRFIELD AVE & GERKE AVE
20F045691 00:23:42 14S SERVING WAR 10XX FARWOOD AVE
20F045697 00:30:36 50 BURGLARY 9XX AURORA KNOLL LN
20F045692 00:32:25 30 TRAFFIC STOP FAIRFIELD AVE & W CONCORD LN
20F045694 00:33:32 48 SUSPICIOUS 37XX SOUTHWAYNE AVE
20F045693 00:34:22 51 THEFT 58XX TURTLE CREEK DR
20F045695 00:49:47 30 TRAFFIC STOP 13XX E LEWIS ST
20F045696 00:49:49 41,36 E FERNHILL AVE & LIMA RD
20F045698 01:02:29 56 MOLESTING 1XX ESMOND ST
20F045699 01:07:48 46 DOMESTIC 24XX PRISCILLA LN
20F045700 01:10:08 40A AUDIBLE 65XX BROTHERHOOD WAY
20F045701 01:20:01 30 TRAFFIC STOP OXFORD ST & S HANNA ST
20F045704 01:24:32 108 FOLLOWUP 18XX GREENTREE CT
20F045702 01:29:20 EMS 3XX W ESSEX LN
20F045703 01:32:19 44LP 37XX AVONDALE DR
20F045705 01:35:34 46 DOMESTIC 12XX ELIZA ST
20F045707 01:53:29 103 UNWANTED 19XX BROADWAY
20F045708 02:00:02 48 SUSPICIOUS PARKVIEW AVE & LINDLEY AVE
20F045709 02:15:05 30 TRAFFIC STOP E PONTIAC ST & GAY ST
20F045710 02:19:15 50 BURGLARY 19XX W FOURTH ST
20F045706 02:20:00 22RN RUNAWAY 31XX HOAGLAND AVE
20F045711 02:29:25 50,ATTEMPTED 15XX FAYETTE DR
20F045712 02:35:17 40A AUDIBLE 14XX OXFORD ST
20F045713 02:37:26 108 FOLLOWUP 37XX E WASHINGTON BLVD
20F045714 02:42:18 46,96 65XX ST JOE RD
20F045715 03:01:50 46 DOMESTIC 41XX WENONAH LN
20F045716 03:19:13 48 SUSPICIOUS 27XX GARDEN PARK DR
20F045717 03:23:05 129 7XX E TILLMAN RD
20F045718 03:34:22 48 SUSPICIOUS S BARR ST & E OAKDALE DR
20F045719 03:45:14 48,36 35XX S HANNA ST
20F045720 03:50:39 40A AUDIBLE 46XX W JEFFERSON BLVD
20F045721 04:17:23 911 HANG UP 7XX MILTON ST
20F045722 04:35:59 EMS 28XX FAIROAK DR
20F045723 04:43:17 48,36 104XX MAYSVILLE RD
20F045724 04:43:44 40A AUDIBLE 51XX INDUSTRIAL RD
20F045725 04:44:33 46 DOMESTIC 44XX WINTER ST
20F045726 04:49:07 129 48XX ABOITE LAKE DR
20F045727 04:59:28 48 SUSPICIOUS 10XX CROWDER CT
20F045728 05:03:00 EMS 13XX HIGH ST
20F045729 05:28:29 40A AUDIBLE 32XX LOWER HUNTINGTON RD
20F045730 05:28:35 48 SUSPICIOUS 30XX S BARR ST
20F045733 05:47:19 48 SUSPICIOUS 88XX COLDWATER RD
20F045731 05:47:58 30 TRAFFIC STOP 71XX ENGLE RD
20F045732 06:10:40 48,36 35XX SMITH ST
20F045734 06:30:10 40A AUDIBLE 49XX GAYWOOD DR
20F045735 06:36:15 40A AUDIBLE 27XX CANTERBURY BLVD
20F045736 06:38:37 25 PD ACCIDENT 59XX SUNDANCE DR
20F045737 07:02:22 25 PD ACCIDENT 109XX W JEFFERSON BLVD
20F045738 07:10:43 46 DOMESTIC 6XX HUFFMAN ST
20F045741 07:21:24 24 MISSING PERS 16XX SHANNON DR
20F045739 07:26:41 48 SUSPICIOUS 2XX W SUPERIOR ST
20F045740 07:30:21 129 BEAVER AVE & W OAKDALE DR
20F045742 07:43:28 48 SUSPICIOUS 30XX W COLISEUM BLVD
20F045743 07:53:26 46 DOMESTIC 67XX PRESCOTT CT
20F045744 08:02:39 30 TRAFFIC STOP E PONTIAC ST & WARSAW ST
20F045745 08:14:09 20 PROBLEM UNK 47XX SOUTHPARK DR
20F045746 08:22:51 1 MEET 27XX E STATE BLVD
20F045747 08:25:51 46 DOMESTIC 67XX PRESCOTT CT
20F045748 08:34:33 40A AUDIBLE 17XX RIVER RUN TRL
20F045749 08:42:01 37 PARKING VIOL 16XX N ANTHONY BLVD
20F045751 08:45:00 50,ATTEMPTED 23XX MARCY LN
20F045750 08:47:19 46,96 22XX SHADY BROOK DR
20F045752 08:50:35 51 THEFT 14XX MEYER RD
20F045753 08:51:50 43 DISTURBANCE 30XX W COLISEUM BLVD
20F045754 08:54:29 25 PD ACCIDENT 51XX WINCHESTER RD
20F045756 08:56:39 46,96 33XX CHESTNUT ST
20F045755 09:05:45 41 MAN DOWN 27XX BROADWAY
20F045757 09:14:58 41 MAN DOWN 67XX N CLINTON ST
20F045758 09:16:21 101 OPEN DOOR 2XX JACOBS AVE
20F045759 09:18:47 25HS HIT SKIP SPY RUN AVE EXT & PARNELL AVE
20F045760 09:19:36 15,85 ASST AT O 25XX E PAULDING RD
20F045761 09:34:03 129 22XX REED ST
20F045762 09:34:40 129 25XX OAKWOOD DR
20F045763 09:34:47 22I JUV INVEST 21XX THOMPSON AVE
20F045764 09:38:27 46,96 11XX CINNAMON RD
20F045765 09:45:53 43 DISTURBANCE 16XX RICHARDSON ST
20F045766 09:49:36 48,36 7XX W SUPERIOR ST
20F045769 09:51:59 63 CONTACT 16XX N GLENDALE DR
20F045767 09:53:05 43 DISTURBANCE 19XX CAREW ST
20F045770 09:53:31 47 REMOVE ITEMS 46XX WERLING DR
20F045768 09:56:59 25 PD ACCIDENT 36XX MULBERRY RD
20F045771 10:10:41 34 TRAFF HAZARD 310XX I 69 NB
20F045772 10:14:17 1 MEET VAN BUREN ST & W SUPERIOR ST
20F045774 10:16:42 46,96 57XX LE STEELE BLVD
20F045773 10:16:44 26 PI ACCIDENT W US 30 AND US 33
20F045776 10:25:03 45 NEIGHBORHOOD 3XX W MAPLE GROVE AVE
20F045780 10:27:48 27 RECKLESS DRI WELLS ST & W STATE BLVD
20F045779 10:27:55 911 HANG UP 2XX BURNS BLVD
20F045777 10:28:44 46 DOMESTIC 63XX S ANTHONY BLVD
20F045778 10:29:27 30 TRAFFIC STOP NEVA AVE & N CLINTON ST
20F045781 10:32:19 51 THEFT 47XX SPEEDWAY DR
20F045782 10:33:46 40A AUDIBLE 27XX CHESTNUT ST
20F045783 10:37:06 25 PD ACCIDENT S CALHOUN ST & E BAKER ST
20F045787 10:42:56 47 REMOVE ITEMS 58XX TURTLE CREEK DR
20F045785 10:44:09 43 DISTURBANCE 7XX W SUPERIOR ST
20F045786 10:46:02 48 SUSPICIOUS 62XX LIMA RD
20F045788 10:49:38 15,85 ASST AT O 25XX E PAULDING RD
20F045789 10:51:27 40A AUDIBLE 36XX CENTRAL DR
20F045791 10:55:28 43 DISTURBANCE 10XX BROADWAY
20F045790 10:56:06 51IP 20XX BROADWAY
20F045792 10:56:18 63 CONTACT 19XX POPLAR RIDGE PL
20F045794 11:15:54 66 MENTALLY ILL 12XX STOPHLET ST
20F045795 11:20:53 53 ARMED ROB 74XX S ANTHONY BLVD
20F045796 11:23:48 51 THEFT 77XX SOUTHTOWN XING
20F045797 11:30:37 48 SUSPICIOUS 19XX FOX POINT TRL
20F045799 11:31:56 1 MEET 27XX S LAFAYETTE ST
20F045798 11:35:08 25 PD ACCIDENT E WASHINGTON CENTER RD & STONEY CR
20F045800 11:37:37 30 TRAFFIC STOP S US 27 & MAPLES RD
20F045801 11:42:15 43 DISTURBANCE 33XX S LAFAYETTE ST
20F045803 12:00:48 66V MENTAL VIOL 9XX BLUE STONE CT
20F045802 12:00:52 33,34 GETZ RD & W JEFFERSON BLVD
20F045805 12:04:50 46 DOMESTIC 27XX S CALHOUN ST
20F045804 12:06:14 51 THEFT 58XX INDUSTRIAL RD
20F045808 12:06:40 45 NEIGHBORHOOD 79XX OKLAHOMA TRL
20F045806 12:07:55 46 DOMESTIC 47XX HEATHERWIND DR
20F045807 12:08:09 43 DISTURBANCE 51XX LILLIE ST
20F045809 12:12:21 56 MOLESTING 21XX DALE DR
20F045811 12:25:33 11C CAGE CAR 75XX SOUTHTOWN XING
20F045810 12:30:53 129 3XX E WILLIAMS ST
20F045815 12:45:57 46,96 38XX PLYMOUTH RD
20F045812 12:46:31 58 SHOOTING 65XX ST JOE RD
20F045813 12:48:13 67 INDECENT 16XX WELLS ST
20F045814 12:58:28 46 DOMESTIC 25XX THOMPSON AVE
20F045816 13:01:10 911 HANG UP 29XX SHAWNEE DR
20F045817 13:07:01 102,TX THREATS 62XX OLD BROOK DR
20F045819 13:12:19 22RC RECOVERY XX E MAIN ST
20F045818 13:12:38 26PP PINNED 63XX W JEFFERSON BLVD
20F045820 13:14:41 40A AUDIBLE 76XX MERIWOOD DR
20F045831 13:22:16 25HS HIT SKIP 24XX KENWOOD AVE
20F045821 13:28:01 103 UNWANTED 47XX SPEEDWAY DR
20F045822 13:29:53 51 THEFT 42XX WARSAW ST
20F045823 13:32:50 30 TRAFFIC STOP LEY RD & INDUSTRIAL RD
20F045824 13:34:41 51IP 9XX N COLISEUM BLVD
20F045829 13:40:12 102 THREATS 61XX CORDAVA CT
20F045825 13:46:06 22N CHILD NEGLE 48XX MOELLER RD
20F045826 13:48:36 66V MENTAL VIOL 53XX STELLHORN RD
20F045827 13:50:06 48 SUSPICIOUS BARTHOLD ST & HIGH ST
20F045828 13:51:56 129 8XX DOVE NEST CV
20F045830 13:59:30 43 DISTURBANCE 2XX W SUPERIOR ST
20F045832 14:06:55 44 NUISANCE 8XX COLUMBIA AVE
20F045833 14:10:34 51JO 8XX N COLISEUM BLVD
20F045834 14:13:52 63 CONTACT JACOBS AVE & WELLS ST
20F045835 14:16:31 65T SUICIDE THR 33XX THURBER AVE
20F045836 14:20:48 39R STOLEN RECO FIFTH ST & BARTHOLD ST
20F045838 14:21:40 63 CONTACT 4XX AVENUE OF AUTOS
20F045837 14:24:33 109 DUMPING 35XX TAYLOR ST
20F045841 14:25:42 48 SUSPICIOUS 17XX HOBSON RD
20F045839 14:26:01 129 7XX SNOWFALL RD
20F045840 14:27:43 48,36 21XX HOBSON RD
20F045842 14:35:19 51 THEFT 2XX MABRY CV
20F045843 14:41:20 30 TRAFFIC STOP 29XX GOSHEN RD
20F045844 14:45:13 25 PD ACCIDENT COLDWATER RD & E LUDWIG RD
20F045845 14:49:07 43 DISTURBANCE 27XX W COLISEUM BLVD
20F045846 14:51:53 39U UNAUTHORIZE 36XX SCHELE AVE
20F045848 14:58:09 43 DISTURBANCE 20XX CORTLAND AVE
20F045847 14:58:36 22I JUV INVEST 2XX E FOURTH ST
20F045849 14:59:32 96 BATTERY 79XX W JEFFERSON BLVD
20F045850 15:02:58 48,36 40XX TACOMA AVE
20F045851 15:03:23 96JO 88XX ROTHMAN RD
20F045855 15:05:52 43 DISTURBANCE 53XX COLDWATER RD
20F045852 15:06:33 48 SUSPICIOUS E STATE BLVD & N COLISEUM BLVD
20F045853 15:06:37 43 DISTURBANCE 18XX KINSMOOR AVE
20F045854 15:09:38 108 FOLLOWUP 7XX THIRD ST
20F045856 15:09:53 25 PD ACCIDENT 63XX E STATE BLVD
20F045858 15:14:54 108 FOLLOWUP 53XX WINTER ST
20F045857 15:16:28 25 PD ACCIDENT 20XX W PACKARD AVE
20F045859 15:21:04 51 THEFT 21XX SHERMAN BLVD
20F045860 15:23:42 43 DISTURBANCE 10XX BUCHANAN ST
20F045861 15:27:13 103 UNWANTED 33XX W COLISEUM BLVD
20F045863 15:29:14 46 DOMESTIC 45XX MANISTEE DR
20F045862 15:29:35 80 CIVIL INVEST 69XX LIMA RD
20F045864 15:31:05 48,36 23XX W MAIN ST
20F045865 15:33:45 43,62 HOLTON AVE & MCKINNIE AVE
20F045867 15:39:57 47 REMOVE ITEMS 77XX RIDGESIDE LN
20F045866 15:40:05 48 SUSPICIOUS PARKVIEW AVE & BROADWAY
20F045869 15:45:42 18 WORK TRAFFIC 25XX BROADWAY
20F045868 15:46:12 46 DOMESTIC 45XX MANISTEE DR
20F045870 15:49:42 46,96 53XX COLDWATER RD
20F045871 15:53:36 46 DOMESTIC 1XX ESMOND ST
20F045872 15:54:45 51,35 14XX SWINNEY AVE
20F045874 15:57:25 96 BATTERY 72XX WHITE EAGLE DR
20F045873 16:03:30 30 TRAFFIC STOP 19XX ARDMORE AVE
20F045875 16:06:35 46,96 46XX CALUMET AVE
20F045876 16:07:31 30 TRAFFIC STOP S CALHOUN ST & E BAKER ST
20F045878 16:09:28 48 SUSPICIOUS 2XX W WAYNE ST
20F045877 16:09:39 48,36 WERLING DR & JOSHUA LN
20F045879 16:11:49 EMS MAUMEE AVE & COMPARET ST
20F045880 16:13:35 46 DOMESTIC 6XX TENNESSEE AVE
20F045881 16:14:10 25,86 69XX LIMA RD
20F045882 16:19:21 30 TRAFFIC STOP 19XX ARDMORE AVE
20F045883 16:30:00 25 PD ACCIDENT S SCOTT RD & CHESTNUT PLAZA DR
20F045885 16:34:23 30 TRAFFIC STOP W COLISEUM BLVD & SHERMAN BLVD
20F045884 16:37:20 16,97 PARNELL AVE & SPY RUN AVE EXT
20F045886 16:37:21 43 DISTURBANCE CRESCENT AVE & TENNESSEE AVE
20F045887 16:39:07 14S SERVING WAR 4XX DUNNWOOD DR
20F045888 16:43:37 30 TRAFFIC STOP 17XX ARDMORE AVE
20F045889 16:46:03 46 DOMESTIC 19XX E PONTIAC ST
20F045890 16:47:10 50 BURGLARY 43XX LYNWOOD CT
20F045891 16:49:55 43 DISTURBANCE 20XX KLUG DR
20F045892 16:52:28 25 PD ACCIDENT S CLINTON ST & E JEFFERSON BLVD
20F045893 17:02:41 111D DOG 57XX KELSO LN
20F045894 17:14:19 41,36 ALLEGANY AVE & SANDPOINT RD
20F045897 17:14:30 43,62 43XX COLDWATER RD
20F045895 17:14:52 30 TRAFFIC STOP S CLINTON ST & E MAIN ST
20F045896 17:15:18 30 TRAFFIC STOP BROADWAY & TAYLOR ST
20F045900 17:18:46 66 MENTALLY ILL 59XX SALGE DR
20F045898 17:20:54 40A AUDIBLE 59XX HOMESTEAD RD
20F045899 17:21:30 30 TRAFFIC STOP 23XX N CLINTON ST
20F045901 17:22:52 70 STRUCTURE 25XX BROADWAY
20F045902 17:30:59 65T SUICIDE THR 56XX COLDWATER RD
20F045903 17:31:56 40A AUDIBLE 5XX ST MARTINS ST
20F045904 17:33:45 51JO 57XX S ANTHONY BLVD
20F045905 17:34:42 96JO 20XX IDA AVE
20F045906 17:40:35 40H HOLDUP ALRM 9XX E TILLMAN RD
20F045907 17:42:04 48 SUSPICIOUS NIAGARA DR & PEMBERTON DR
20F045908 17:47:02 25HS HIT SKIP 11XX E LEWIS ST
20F045909 17:48:06 48 SUSPICIOUS W JEFFERSON BLVD & FAIRFIELD AVE
20F045911 17:51:10 51JO 55XX MEIJER DR
20F045910 17:51:22 33,34 N COLISEUM BLVD & LAKE AVE
20F045912 17:52:07 43 DISTURBANCE 16XX WELLS ST
20F045913 17:59:29 48 SUSPICIOUS 9XX S HARRISON ST
20F045914 18:02:02 46 DOMESTIC 3XX W DEWALD ST
20F045915 18:03:32 48 SUSPICIOUS 1XX E RUDISILL BLVD
20F045916 18:11:44 48 SUSPICIOUS 15XX LOCHINVAR DR
20F045917 18:19:52 40P PANIC ALARM 8XX HUGH ST
20F045918 18:20:39 48 SUSPICIOUS 39XX SHERMAN BLVD
20F045919 18:22:24 25 PD ACCIDENT 17XX W WASHINGTON CENTER RD
20F045920 18:24:24 48 SUSPICIOUS NIAGARA DR & PEMBERTON DR
20F045921 18:29:25 25HS HIT SKIP 59XX MEADOWS DR
20F045922 18:29:34 63 CONTACT 311XX I 69 NB
20F045923 18:31:29 46,96 65XX HACKBERRY DR
20F045924 18:41:49 103 UNWANTED 8XX S CALHOUN ST
20F045925 18:43:59 46,96 43XX TURF LN
20F045928 18:48:56 45 NEIGHBORHOOD 29XX JOHN ST
20F045926 18:49:24 41 MAN DOWN 8XX HIGH ST
20F045927 18:50:32 48,36 53XX N STONY RUN LN
20F045929 18:56:42 22I JUV INVEST 75XX SOUTHTOWN XING
20F045930 19:03:30 65T SUICIDE THR 12XX W MAIN ST
20F045931 19:07:54 51JO 53XX COLDWATER RD
20F045932 19:11:52 55 FIGHT 48XX SPATZ AVE
20F045933 19:12:40 51 THEFT 30XX OLIVER ST
20F045934 19:23:47 48 SUSPICIOUS 17XX BROADWAY
20F045935 19:28:21 30 TRAFFIC STOP SMITH ST & OXFORD ST
20F045936 19:33:28 911 HANG UP 21XX EDEN ST
20F045937 19:34:50 129 45XX WINDING WAY DR
20F045939 19:37:58 27 RECKLESS DRI OXFORD ST & WEISSER PARK AVE
20F045938 19:39:58 25 PD ACCIDENT FAIRFIELD AVE & AIRPORT EXPRESSWAY
20F045940 19:48:14 11C CAGE CAR 53XX COLDWATER RD
20F045941 19:49:45 50IP BURG I/P 5XX TECUMSEH ST
20F045942 19:56:26 33J LOCKED OUT 53XX COLDWATER RD
20F045943 20:00:38 40A AUDIBLE 50XX W JEFFERSON BLVD
20F045944 20:02:37 14S SERVING WAR 48XX BOWSER AVE
20F045945 20:08:58 30 TRAFFIC STOP W JEFFERSON BLVD & FREEMAN ST
20F045946 20:14:38 911 HANG UP 101XX ILLINOIS RD
20F045947 20:18:32 27 RECKLESS DRI 73XX MAYSVILLE RD
20F045948 20:25:07 50 BURGLARY 79XX SERENITY DR
20F045949 20:26:00 43 DISTURBANCE 3XX KILLEA ST
20F045953 20:31:26 911 HANG UP 57XX COVENTRY LN
20F045951 20:33:58 48 SUSPICIOUS 2XX E MAIN ST
20F045950 20:35:08 48 SUSPICIOUS 91XX YEAGER LN
20F045952 20:36:25 30 TRAFFIC STOP ARDMORE AVE & TAYLOR ST
20F045955 20:37:48 63 CONTACT W WASHINGTON CENTER RD & CROSS CRE
20F045954 20:38:51 43 DISTURBANCE 25XX CENTRAL DR
20F045956 20:42:48 HARASSMENT 9XX BURGESS ST
20F045957 20:48:55 48,36 107XX LONE EAGLE WAY
20F045959 20:51:54 24 MISSING PERS 91XX ABOITE CENTER RD
20F045958 20:52:30 101 OPEN DOOR 19XX FOREST DOWNS DR
20F045960 20:53:54 40A AUDIBLE 9XX NORTHCREST SHOPPING CTR
20F045961 20:56:32 102,TX THREATS 8XX MILL LAKE RD
20F045962 20:58:07 30 TRAFFIC STOP LIMA RD & PRODUCTION RD
20F045963 20:59:07 51 THEFT 43XX SPATZ AVE
20F045964 20:59:38 26 PI ACCIDENT N ANTHONY BLVD & DELAWARE AVE
20F045965 21:05:52 26HS PI HITSKIP E WALLEN RD & COLDWATER RD
20F045966 21:08:27 46,96 31XX WELLS ST
20F045967 21:10:38 66V MENTAL VIOL 19XX MAPLEWOOD RD
20F045968 21:14:25 30 TRAFFIC STOP TAYLOR ST & BRIGHT ST
20F045969 21:14:53 26 PI ACCIDENT WARSAW ST & ST MARTINS ST
20F045970 21:19:32 48 SUSPICIOUS 26XX FOX AVE
20F045971 21:20:14 46 DOMESTIC 12XX ELIZA ST
20F045972 21:26:24 48,35 46XX E WASHINGTON BLVD
20F045973 21:33:15 30 TRAFFIC STOP FAIRFIELD AVE & W JEFFERSON BLVD
20F045974 21:34:22 30 TRAFFIC STOP 22XX I 469 NB
20F045975 21:35:07 25HS HIT SKIP 55XX MEIJER DR
20F045976 21:37:27 15 ASSIST W WASHINGTON CENTER RD & SHARON DR
20F045977 21:39:40 30 TRAFFIC STOP 20XX N ANTHONY BLVD
20F045979 21:43:17 103 UNWANTED 17XX FLINT LOCK LN
20F045978 21:43:33 46 DOMESTIC 44XX SPATZ AVE
20F045980 21:44:03 911 HANG UP 7XX BUCHANAN ST
20F045981 21:46:35 48,36 N STONY RUN LN & WESLEY CT
20F045982 21:50:46 46 DOMESTIC 29XX MARNE PL
20F045983 21:54:01 27 RECKLESS DRI ST JOE CENTER RD & ST JOE RD
20F045984 21:55:44 65T SUICIDE THR 4XX ROSE LN
20F045985 21:57:33 48 SUSPICIOUS INDIANA AVE & HOME AVE
20F045986 22:00:07 26 PI ACCIDENT STELLHORN RD & MAPLECREST RD
20F045987 22:01:52 26 PI ACCIDENT S LAFAYETTE ST & S HANNA ST
20F045989 22:04:55 34 TRAFF HAZARD E COLISEUM BLVD & HOBSON RD
20F045988 22:05:55 43 DISTURBANCE 17XX APPLE GLEN BLVD
20F045990 22:13:03 25 PD ACCIDENT INDIANA AVE & W WILDWOOD AVE
20F045991 22:14:56 40A AUDIBLE 13XX PARK AVE
20F045992 22:23:35 33,34 LIMA RD & RABUS DR
20F045993 22:24:10 30 TRAFFIC STOP GOSHEN RD & W COLISEUM BLVD
20F045994 22:28:39 65T SUICIDE THR 6XX COLUMBIA AVE
20F045995 22:46:39 25 PD ACCIDENT NUTTMAN AVE & ARDMORE AVE
20F045996 22:48:34 46 DOMESTIC 3XX BRANDRIFF ST
20F045997 22:51:31 30 TRAFFIC STOP 40XX E WASHINGTON BLVD
20F045998 22:56:07 46,96 16XX RICHARDSON ST
20F045999 23:04:37 43 DISTURBANCE 9XX TAMERA GARDEN AVE
20F046000 23:10:37 30 TRAFFIC STOP MAPLECREST RD & EVARD RD
20F046001 23:11:04 911 HANG UP 12XX ELIZA ST
20F046002 23:12:34 30 TRAFFIC STOP ST JOE RD & HIKE LN
20F046003 23:22:21 43 DISTURBANCE 12XX MAGNAVOX WAY
20F046004 23:29:52 59 CUTTING/STAB 40XX S LAFAYETTE ST
20F046005 23:43:12 48 SUSPICIOUS FOX AVE & HUESTIS AVE
20F046006 23:43:45 30 TRAFFIC STOP 66XX ST JOE RD
20F046007 23:43:54 30 TRAFFIC STOP E STATE BLVD & N COLISEUM BLVD
20F046008 23:46:16 48 SUSPICIOUS 58XX N CLINTON ST
20F046009 23:55:52 911 HANG UP ST MARTINS ST & WARSAW ST
20F046010 23:57:51 30 TRAFFIC STOP SENATE AVE & SOUTHPARK DR